Regional Weather Roundup
Issued by NWS Albany, NY

Home | Current Version | Previous Version | Text Only | Print | Product List | Glossary On
Versions: 1 2 3 4 5 6 7 8 9 10 11 12 13 14 15 16 17 18 19 20 21 22 23 24 25 26 27 28 29 30 31 32 33 34 35 36 37 38 39 40 41 42 43 44 45 46 47 48 49 50
014
ASUS41 KALY 231510
RWRALY

NEW YORK STATE HOURLY WEATHER ROUNDUP
NATIONAL WEATHER SERVICE ALBANY NY
1000 AM EST FRI FEB 23 2018

NOTE: "FAIR" INDICATES FEW OR NO CLOUDS BELOW 12,000 FEET WITH NO
SIGNIFICANT WEATHER AND/OR NO OBSTRUCTIONS TO VISIBILITY.

NYZ032-033-038>043-046>054-057>066-NYZ062>081-082-084-231600-
EAST


CITY           SKY/WX    TMP DP  RH WIND       PRES   REMARKS
ALBANY         PTSUNNY   28  26  92 CALM      30.60F
GLENS FALLS    FAIR      26  20  77 NE3       30.59F
POUGHKEEPSIE   CLOUDY    32  28  85 CALM      30.62S
NEWBURGH       DRIZZLE   32  30  93 CALM      30.62S FOG
MONTGOMERY     CLOUDY    32  29  88 CALM      30.60F FOG
WHITE PLAINS   LGT RAIN  34  31  88 E6        30.62R FOG     WCI  29
ISLIP          LGT RAIN  37  33  85 E10       30.62F WCI  30
NEW YORK CITY  LGT RAIN  37  32  82 NE9       30.63F WCI  30
$$

NYZ005>009-017-018-044>046-055-056-231600-
CENTRAL


CITY           SKY/WX    TMP DP  RH WIND       PRES   REMARKS
FULTON         CLOUDY    33  27  78 VRB7      30.39F WCI  27
SYRACUSE       CLOUDY    33  31  92 E9        30.41F WCI  25
ROME           CLOUDY    30  23  75 SE14      30.49F WCI  19
ELMIRA         CLOUDY    37  34  89 S6        30.43F WCI  32
BINGHAMTON     CLOUDY    31  29  92 S12G18    30.44S WCI  22
MONTICELLO     CLOUDY    30  29  96 E7        30.54  WCI  23
$$

NYZ026>034-041>043-087-231600-
NORTH


CITY           SKY/WX    TMP DP  RH WIND       PRES   REMARKS
WATERTOWN      CLOUDY    34  29  82 CALM      30.40F
FORT DRUM      NOT AVBL
OGDENSBURG     FAIR      28  24  83 E3        30.45F
MASSENA        CLOUDY    25  16  68 E7        30.50F WCI  17
SARANAC LAKE   CLOUDY    24  17  74 S3        30.41F
PLATTSBURGH    PTSUNNY   27  20  75 SE16      30.53F WCI  15
$$

NYZ001>004-010>016-019>021-085-231600-
WEST


CITY           SKY/WX    TMP DP  RH WIND       PRES   REMARKS
NIAGARA FALLS  CLOUDY    43  35  73 SE6       30.21F
BUFFALO        CLOUDY    43  37  79 SE7       30.21F
DUNKIRK        CLOUDY    47  42  83 S21G28    30.18F
JAMESTOWN        N/A    N/A N/A N/A MISG        N/A
WELLSVILLE     CLOUDY    35  34  96 S15G22    30.31F WCI  25
ROCHESTER      CLOUDY    41  35  79 S13       30.27F
PENN YAN       CLOUDY    37  31  78 S16G24    30.35F WCI  28
$$

             KEY
       WCI = WIND CHILL INDEX
       VSB = VISIBILITY
       HX  = HEAT INDEX
$$




USA.gov is the U.S. government's official web portal to all federal, state and local government web resources and services.